Regional Weather Roundup
Issued by NWS

Home | Current Version | Previous Version | Graphics & Text | Print | Product List | Glossary On
Versions: 1 2 3 4 5 6 7 8 9 10 11 12 13 14 15 16 17 18 19 20 21 22 23 24 25 26 27 28 29 30 31 32 33 34 35 36 37 38 39 40 41 42 43 44 45 46 47
000
ASUS43 KMPX 051010
RWRMN
WEATHER ROUNDUP FOR MINNESOTA
NATIONAL WEATHER SERVICE TWIN CITIES/CHANHASSEN MN
500 AM CDT SAT SEP 05 2015


NOTE: "FAIR" INDICATES FEW OR NO CLOUDS BELOW 12,000 FEET WITH NO
SIGNIFICANT WEATHER AND/OR OBSTRUCTIONS TO VISIBILITY. N/A MEANS
CURRENT SKY AND/OR WEATHER CONDITIONS ARE NOT AVAILABLE.

MNZ060>063-068>070-051100-
   Twin Cities Metro

CITY           SKY/WX    TMP DP  RH WIND       PRES   REMARKS
TWIN CITIES    MOCLDY    77  70  79 SE7       29.95R
ST PAUL        MOCLDY    74  71  91 SE7       29.95R
CRYSTAL        CLOUDY    79  70  74 S9        29.93R
BLAINE         MOCLDY    79  73  83 S8        29.95R
LAKEVILLE      PTCLDY    72  72 100 CALM      29.95S
EDEN PRAIRIE   PTCLDY    76  71  85 SE7       29.94R
SOUTH ST PAUL  PTCLDY    76  70  83 S3        29.95R
LAKE ELMO      FAIR      72  70  94 SE5       29.98R
$$
MNZ001>005-007-008-013>017-022>024-027-028-051100-
   Northwest Minnesota

CITY           SKY/WX    TMP DP  RH WIND       PRES   REMARKS
BEMIDJI        PTCLDY    69  69  99 E7        29.90S
HALLOCK        CLOUDY    63  63 100 CALM      29.92R FOG
ROSEAU         HAZE      61  55  82 CALM      29.91S VSB 1/2
WARROAD        FOG       63  57  82 CALM      29.91F VSB 1/2
THIEF RVR FALL MOCLDY    68  66  94 NE9       29.89S
CROOKSTON      PTCLDY    70  66  88 N3        29.88S
FOSSTON        CLEAR     66  64  94 CALM      29.90R
DETROIT LAKES  CLOUDY    72  70  94 SE3       29.90S
MOORHEAD       CLEAR     70  68  94 SE3       29.85S
PARK RAPIDS    CLOUDY    73  69  87 SE6       29.90S
MAHNOMEN       FAIR      68  67  96 CALM      29.88R
$$
MNZ006-009>011-018-025>026-051100-
   North Central Minnesota

CITY           SKY/WX    TMP DP  RH WIND       PRES   REMARKS
BAUDETTE       CLOUDY    70  68  93 SE5       29.91F
FLAG ISLAND    CLEAR     68  66  94 CALM      29.90S
INTL FALLS     LGT RAIN  67  66  97 E6        29.94F
WASKISH        CLOUDY    68  66  94 E8        29.92S
BIG FORK       MOCLDY    68  66  94 SE3       29.94S
LONGVILLE      CLOUDY    72  70  94 CALM      29.92S
GRAND RAPIDS     N/A     68  64  88 SE8       29.96R
CRANE LAKE     CLOUDY    64  63  94 CALM      29.98F
ORR            CLOUDY    64  63  94 SE1       29.94S
COOK           CLOUDY    66  64  94 SE5       29.97S
WALKER         CLOUDY    72  70  95 SE5       29.91S
$$
MNZ012-019>021-037-051100-
   Northeast Minnesota

CITY           SKY/WX    TMP DP  RH WIND       PRES   REMARKS
DULUTH         CLOUDY    67  64  90 SE8       30.01S
ELY            CLOUDY    64  63  94 CALM      29.99R
HIBBING        MOCLDY    67  65  93 SE9       29.98R
EVELETH        MOCLDY    64  64 100 CALM      30.00R
DULUTH HARBOR  CLOUDY    61  57  88 E12       30.00S
TWO HARBORS    MOCLDY    70  64  83 NE5       29.99F
SILVER BAY     TSTM      66  64  94 CALM      29.99F
GRAND MARAIS     N/A     64  61  90 E5        29.99F
G MARAIS ARPRT CLOUDY    63  61  94 CALM      30.05R FOG
$$
MNZ029>031-032-039>041-046>048-054>057-064-051100-
   West Central Minnesota

CITY           SKY/WX    TMP DP  RH WIND       PRES   REMARKS
FERGUS FALLS   PTCLDY    73  72  94 SE6       29.84F
WHEATON        CLEAR     66  66 100 E6        29.85S FOG
MORRIS         PTCLDY    72  72 100 SE6       29.84S FOG
ALEXANDRIA     PTCLDY    72  70  93 SE3       29.90R
ELBOW LAKE     FAIR      73  71  93 E3        29.86S
WADENA         PTCLDY    72  68  88 CALM      29.90R
GLENWOOD       CLEAR     73  70  88 SE5       29.90R
APPLETON       CLEAR     73  70  88 SE6       29.84R
BENSON         CLEAR     73  68  83 S5        29.86R
ORTONVILLE     PTCLDY    72  68  88 SE6       29.83S
MADISON        PTCLDY    70  68  94 SE6       29.83F
WILLMAR        MOCLDY    75  72  88 SE9       29.89R
$$
MNZ033>034-036-042>043-049>051-058-059-051100-
   Central Minnesota

CITY           SKY/WX    TMP DP  RH WIND       PRES   REMARKS
ST CLOUD       TSTM      73  71  93 S17       29.92F FOG
SAUK CENTRE    CLOUDY    73  70  91 SE6       29.90S
PAYNESVILLE    CLOUDY    76  69  80 E8        29.91R
AITKIN         CLOUDY    73  68  83 S5        29.92F
PINE RIVER     CLOUDY    72  72 100 SE3       29.95R
BRAINERD       CLOUDY    71  68  90 S10       29.92S
STAPLES        MOCLDY    73  66  78 S9        29.90S
LONG PRAIRIE   CLOUDY    70  68  94 E6        29.91S
LITTLE FALLS   TSTM      72  68  88 E6        29.93F
LITCHFIELD     CLOUDY    79  72  78 SE9G17    29.91F THUNDER
BUFFALO        MOCLDY    76  70  81 S6        29.94S
MAPLE LAKE     TSTM      75  72  90 SE3       29.94R
$$
MNZ037-044-045-052-053-051100-
   East Central Minnesota

CITY           SKY/WX    TMP DP  RH WIND       PRES   REMARKS
PRINCETON      PTCLDY    73  72  94 E5        29.94R
MORA           PTCLDY    70  68  94 SE3       29.97S
CAMBRIDGE      MOCLDY    75  66  73 SE3       29.94R
RUSH CITY      FAIR      71  69  92 SE3       29.96R
MOOSE LAKE     CLOUDY    61  59  94 NE3       29.97R
HINCKLEY       FAIR      72  72 100 E3        29.96S
CLOQUET        CLOUDY    66  63  88 E5        30.00R
MCGREGOR       CLOUDY    68  68 100 E9        29.95F
$$
MNZ071>073-080-081-089-090-097-098-051100-
   Southwest Minnesota

CITY           SKY/WX    TMP DP  RH WIND       PRES   REMARKS
MONTEVIDEO     CLEAR     73  70  88 S7        29.86S
GRANITE FALLS  CLEAR     73  69  89 SE7       29.87R
CANBY          PTCLDY    76  67  73 S8        29.84S
MARSHALL       PTCLDY    73  64  73 S14       29.86S
REDWOOD FALLS  PTCLDY    74  70  87 SE12      29.87S
OLIVIA         MOCLDY    72  68  88 SE10      29.87S
PIPESTONE      PTCLDY    73  66  78 S10       29.88S
WINDOM         PTCLDY    75  68  78 SE10      29.91S
WORTHINGTON    PTCLDY    72  64  78 S13       29.91R
JACKSON        DRIZZLE   73  70  88 S12       29.94R
TRACY          PTCLDY    74  69  86 S13G18    29.87S
SLAYTON        PTCLDY    69  69  99 CALM      29.90S
$$
MNZ065>067-074>077-082>085-091>093-051100-
   South Central Minnesota

CITY           SKY/WX    TMP DP  RH WIND       PRES   REMARKS
MANKATO        MOCLDY    75  70  83 SE8       29.94S
NEW ULM        CLOUDY    75  70  83 SE9       29.91S
ST JAMES       MOCLDY    75  72  88 SE10      29.92S
FAIRMONT       PTCLDY    73  66  78 S13       29.93S
GLENCOE        TSTM      74  73  95 S14G20    29.95R
FARIBAULT      PTCLDY    75  70  83 S5        29.97R
OWATONNA       PTCLDY    73  70  88 SE7       29.97S
WASECA         PTCLDY    72  70  94 SE7       29.97S
ALBERT LEA     PTCLDY    73  70  88 S9        29.98R
$$
MNZ078>079-086>088-094>096-051100-
   Southeast Minnesota

CITY           SKY/WX    TMP DP  RH WIND       PRES   REMARKS
ROCHESTER      MOCLDY    71  70  96 SE8       30.01S
RED WING       PTCLDY    75  70  83 SE6       29.96R
STANTON        PTCLDY    76  69  79 S3        29.95R
DODGE CENTER   PTCLDY    72  70  94 S6        29.99S
WINONA         CLOUDY    73  72  94 SE3       29.99F
AUSTIN         PTCLDY    73  70  88 SE5       29.99S
PRESTON        MOCLDY    71  67  87 SE5       30.02F
$$
ABBREVIATIONS USED IN REMARKS
   TC - TEMPERATURES IN CELSIUS
  WCI - WIND CHILL INDEX
   HX - HEAT INDEX
  VSB - VISIBILITY
$$


USA.gov is the U.S. government's official web portal to all federal, state and local government web resources and services.